Flag for USA

Past Weather in Rapid City, South Dakota, USA — Yesterday and Last 2 Weeks

Now
69 °F

Sunny.


Feels Like: 69 °F
Forecast: 81 / 63 °F
Wind: 39 mph from Northwest

Location: Ellsworth Air Force Base

Current Time: Jul 13, 2020 at 6:37:43 am

Latest Report: Jul 13, 2020 at 5:56 am


Visibility: 10 mi

Pressure: 29.67 "Hg (26.48 "Hg at 977m altitude)

Humidity: 45%

Dew Point: 46 °F

Location of Rapid CityLocation

Past Weather in Rapid City — Graph

°F

Rapid City Temperature Yesterday

Maximum temperature yesterday: 93 °F (at 5:10 pm)
Minimum temperature yesterday: 58 °F (at 5:56 am)
Average temperature yesterday: 76 °F

High & Low Weather Summary for the Past Weeks

 TemperatureHumidityPressure
High97 °F (Jul 3, 3:56 pm)94% (Jul 6, 6:01 am)30.18 "Hg (Jul 6, 6:01 am)
Low49 °F (Jul 1, 4:56 am)13% (Jul 1, 3:56 pm)29.34 "Hg (Jun 28, 4:56 am)
Average75 °F55%29.83 "Hg
* Reported Jun 28 4:56 am — Jul 13 4:56 am, Rapid City. Weather by CustomWeather, © 2020

Note: Actual official high and low records may vary slightly from our data, if they occured in-between our weather recording intervals... More about our weather records

Rapid City Weather History for the Previous 24 Hours

Scroll right to see more
 ConditionsComfort  
Time TempWeatherWind HumidityBarometerVisibility
4:56 am
Mon, Jul 13
72 °FSunny.38 mph68%29.64 "Hg10 mi
3:56 am74 °FPassing clouds.20 mph64%29.59 "Hg10 mi
2:56 am74 °FPassing clouds.10 mph64%29.53 "Hg10 mi
1:56 am75 °FPassing clouds.10 mph65%29.56 "Hg10 mi
12:56 am76 °FPassing clouds.12 mph59%29.60 "Hg10 mi
11:56 pm
Sun, Jul 12
75 °FClear.10 mph60%29.65 "Hg10 mi
10:56 pm75 °FPassing clouds.10 mph66%29.68 "Hg10 mi
9:56 pm79 °FClear.10 mph58%29.67 "Hg10 mi
8:56 pm81 °FClear.15 mph56%29.67 "Hg10 mi
7:56 pm84 °FClear.12 mph46%29.69 "Hg10 mi
6:56 pm87 °FSunny.13 mph40%29.69 "Hg10 mi
5:56 pm93 °FSunny.18 mph35%29.71 "Hg10 mi
5:10 pm93 °FSunny.17 mph34%29.71 "Hg10 mi
4:56 pm92 °FSunny.17 mph35%29.72 "Hg10 mi
3:56 pm91 °FSunny.13 mph39%29.74 "Hg10 mi
2:56 pm90 °FSunny.15 mph43%29.78 "Hg10 mi
1:56 pm87 °FSunny.18 mph46%29.80 "Hg10 mi
12:56 pm84 °FSunny.14 mph49%29.84 "Hg10 mi
11:56 am80 °FSunny.20 mph50%29.88 "Hg10 mi
10:56 am77 °FSunny.16 mph50%29.90 "Hg10 mi
10:16 am73 °FScattered clouds.18 mph50%29.95 "Hg10 mi
9:56 am74 °FPartly sunny.14 mph49%29.96 "Hg10 mi
9:31 am73 °FPartly sunny.12 mph50%29.97 "Hg10 mi
8:56 am71 °FPassing clouds.No wind49%29.98 "Hg10 mi
7:56 am67 °FPartly sunny.No wind62%30.00 "Hg10 mi
6:56 am63 °FSunny.9 mph70%30.01 "Hg10 mi
Weather by CustomWeather, © 2020

See weather overview